Terug naar catalogus

STARLINK-3814

ActiefCommunicatieVLEO
NORAD 52335·PAYLOAD·🇺🇸 United States

Gelanceerd Apr 29, 2022 vanaf Cape Canaveral Space Force Station

Loading…

Volgende Passages (komende 24 uur)

TLE

VersSource: CelesTrak SupGP

Epoch: Sep 14, 2026, 21:42 UTC

1 52335C 22045E   26257.90465278  .00756480  00000+0  23738-1 0  2574
2 52335  53.1608  77.6585 0001252  86.0391  15.0404 15.32106645    16

Volg STARLINK-3814 in realtime met AllMySat

Download on the App Store